Satellite: NOAA-16
Catalog number: 26536
Epoch time:      05167.51033965
Element set:     386
Inclination:      099.0138 deg
RA of node:       125.9507 deg
Eccentricity:    0.0011394
Arg of perigee:   071.9852 deg
Mean anomaly:     288.2558 deg
Mean motion:   14.12248530 rev/day
Decay rate:       3.47e-06 rev/day^2
Epoch rev:           24396
Checksum:              322

Satellite: NOAA-17
Catalog number: 27453
Epoch time:      05167.44555756
Element set:     409
Inclination:      098.6597 deg
RA of node:       240.9694 deg
Eccentricity:    0.0012602
Arg of perigee:   061.3404 deg
Mean anomaly:     298.9040 deg
Mean motion:   14.23675039 rev/day
Decay rate:       2.44e-06 rev/day^2
Epoch rev:           15473
Checksum:              321

/EX
SB KEPS @ AMSAT  $ORB05167.M
Orbital Elements  05167.MISC

HR AMSAT ORBITAL ELEMENTS FOR MANNED AND MISCELLANEOUS SATELLITES
FROM WA5QGD FORT WORTH,TX June 16, 2005
Send SUBSCRIBE KEPS/UNSUBSCRIBE KEPS to majordomo@amsat.org only
BID: ORB05167.M
TO ALL RADIO AMATEURS BT

Satellite: HUBBLE
Catalog number: 20580
Epoch time:      05166.66070790
Element set:     359
Inclination:      028.4682 deg
RA of node:       278.7297 deg
Eccentricity:    0.0003779
Arg of perigee:   251.4137 deg
Mean anomaly:     108.6042 deg
Mean motion:   14.99749702 rev/day
Decay rate:       8.70e-06 rev/day^2
Epoch rev:           63001
Checksum:              313

Satellite: UARS
Catalog number: 21701
Epoch time:      05166.60049698
Element set:     461
Inclination:      056.9793 deg
RA of node:       196.4844 deg
Eccentricity:    0.0004321
Arg of perigee:   091.7763 deg
Mean anomaly:     268.4215 deg
Mean motion:   15.03845875 rev/day
Decay rate:        2.2e-07 rev/day^2
Epoch rev:           75325
Checksum:              310

Satellite: PO-34
Catalog number: 25520
Epoch time:      05167.45321170
Element set:     204
Inclination:      028.4595 deg
RA of node:       317.1992 deg
Eccentricity:    0.0005475
Arg of perigee:   214.3716 deg
Mean anomaly:     145.6525 deg
Mean motion:   15.16314258 rev/day
Decay rate:      1.125e-05 rev/day^2
Epoch rev:           36647
Checksum:              287

Satellite: ISS
Catalog number: 25544
Epoch time:      05167.80097340
Element set:     703
Inclination:      051.6452 deg
RA of node:       262.8859 deg
Eccentricity:    0.0004182
Arg of perigee:   262.1008 deg
Mean anomaly:     191.5295 deg
Mean motion:   15.72899213 rev/day
Decay rate:     1.8500e-04 rev/day^2
Epoch rev:           37562
Checksum:              300

Satellite: WO-39
Catalog number: 26061
Epoch time:      03303.41062303
Element set:     973
Inclination:      100.1904 deg
RA of node:       047.3011 deg
Eccentricity:    0.0034615
Arg of perigee:   281.6926 deg
Mean anomaly:     078.0378 deg
Mean motion:   14.38082544 rev/day
Decay rate:      2.252e-05 rev/day^2
Epoch rev:           19701
Checksum:              268

Satellite: OO-38
Catalog number: 26063
Epoch time:      05166.66362806
Element set:     374
Inclination:      100.2173 deg
RA of node:       026.4295 deg
Eccentricity:    0.0037165
Arg of perigee:   060.1800 deg
Mean anomaly:     300.3068 deg
Mean motion:   14.35721956 rev/day
Decay rate:        6.7e-07 rev/day^2
Epoch rev:           28207
Checksum:              282

Satellite: NO-45
Catalog number: 26932
Epoch time:      05166.74849895
Element set:      55
Inclination:      067.0583 deg
RA of node:       231.1572 deg
Eccentricity:    0.0007256
Arg of perigee:   245.2626 deg
Mean anomaly:     114.7726 deg
Mean motion:   14.29489877 rev/day
Decay rate:       2.09e-06 rev/day^2
Epoch rev:           19359
Checksum:              345

/EX



----
Via the keps mailing list at AMSAT.ORG courtesy of AMSAT-NA.
To unsubscribe, send "unsubscribe keps" to Majordomo@amsat.org

--- ViaMAIL!/WC v1.60d
 * Origin: Chowdanet (401-331-0615) telnet://chowdanet.com  (1:323/120)